This is the latest recevied weather packets stored in our database for station/object N8BAP. If no packets are shown the sender has not sent any weather packets the latest 10 day(s).
| Time | Temp. | Humidity | Pressure | Rain* | Wind** | Luminosity | Snow |
|---|---|---|---|---|---|---|---|
| 1778165536 | 12.22° C | 54% | 1019.8 hPa | 0 mm | - | 744 W/m² | - |
| 1778165232 | 11.67° C | 57% | 1019.7 hPa | 0 mm | - | 704 W/m² | - |
| 1778164930 | 11.67° C | 56% | 1019.9 hPa | 0 mm | - | 696 W/m² | - |
| 1778164627 | 11.67° C | 55% | 1019.7 hPa | 0 mm | - | 709 W/m² | - |
| 1778164324 | 11.67° C | 57% | 1019.7 hPa | 0 mm | - | 647 W/m² | - |
| 1778164019 | 11.67° C | 56% | 1019.9 hPa | 0 mm | - | 628 W/m² | - |
| 1778163716 | 11.67° C | 54% | 1019.7 hPa | 0 mm | - | 600 W/m² | - |
| 1778163412 | 11.67° C | 56% | 1019.8 hPa | 0 mm | - | 613 W/m² | - |
| 1778163109 | 11.67° C | 57% | 1020.1 hPa | 0 mm | - | 552 W/m² | - |
| 1778162806 | 11.11° C | 58% | 1020.1 hPa | 0 mm | - | 583 W/m² | - |
| 1778162504 | 11.11° C | 59% | 1020 hPa | 0 mm | - | 570 W/m² | - |
| 1778162200 | 10.56° C | 58% | 1020 hPa | 0 mm | - | 504 W/m² | - |
| 1778161898 | 10.56° C | 56% | 1020.1 hPa | 0 mm | - | 529 W/m² | - |
| 1778161594 | 10.56° C | 58% | 1020.1 hPa | 0 mm | - | 517 W/m² | - |
| 1778161290 | 10.56° C | 61% | 1020.2 hPa | 0 mm | - | 502 W/m² | - |
| 1778160986 | 10.56° C | 60% | 1020.2 hPa | 0 mm | - | 464 W/m² | - |
| 1778160684 | 10.56° C | 61% | 1020.1 hPa | 0 mm | - | 415 W/m² | - |
| 1778160381 | 10.56° C | 61% | 1020 hPa | 0 mm | - | 384 W/m² | - |
| 1778160076 | 10° C | 60% | 1020.1 hPa | 0 mm | - | 368 W/m² | - |
| 1778159774 | 10° C | 61% | 1020 hPa | 0 mm | - | 317 W/m² | - |
| 1778159471 | 10° C | 62% | 1020.2 hPa | 0 mm | - | 304 W/m² | - |
| 1778159168 | 9.44° C | 61% | 1020.2 hPa | 0 mm | - | 308 W/m² | - |
| 1778158866 | 9.44° C | 65% | 1020.3 hPa | 0 mm | - | 287 W/m² | - |
| 1778158564 | 9.44° C | 63% | 1020.4 hPa | 0 mm | - | 274 W/m² | - |
| 1778158261 | 9.44° C | 64% | 1020.4 hPa | 0 mm | - | 277 W/m² | - |
* Rain latest hour (hover to see other rain measurements)
** Current wind speed in m/s (hover to see current wind gust speed)